Location: Barruelo
(41.2448°N, 3.8231°W)
Time: 18:32:08
(UTC+00:00)

USA 238 DEB - Visible Passes

Search period start: 07 March 2026 00:00
Search period end: 17 March 2026 00:00
Orbit: 883 x 1328 km, 63.4° (Epoch: 10 January)

Date Brightness Start Highest point End Pass type
(mag) Time Alt. Az. Time Alt. Az. Time Alt. Az.
7 Mar 6.2 02:13:38 11° N 02:14:43 11° N 02:16:36 10° NNE visible
7 Mar 6.1 04:04:14 10° NNW 04:09:00 18° NNE 04:14:01 10° ENE visible
7 Mar 4.8 05:54:22 10° NNW 06:01:40 54° NE 06:09:33 10° SE visible
8 Mar 6.3 01:29:41 12° N 01:29:41 12° N 01:31:11 10° N visible
8 Mar 6.2 03:19:27 10° NNW 03:23:10 14° NNE 03:27:02 10° NE visible
8 Mar 5.3 05:09:32 10° NNW 05:16:22 38° NE 05:23:44 10° ESE visible
9 Mar 6.3 00:45:40 11° N 00:45:40 11° N 00:46:14 10° NNE visible
9 Mar 6.3 02:34:33 10° N 02:37:13 12° N 02:39:58 10° NNE visible
9 Mar 5.7 04:24:45 10° NNW 04:30:55 28° NE 04:37:32 10° E visible
10 Mar 6.3 01:49:17 10° NNW 01:51:12 11° N 01:53:11 10° NNE visible
10 Mar 6.0 03:40:00 10° NNW 03:45:20 21° NNE 03:50:58 10° ENE visible
10 Mar 4.4 05:30:12 10° NNW 05:37:40 67° NE 05:45:45 10° SE visible
11 Mar 6.3 01:04:48 11° N 01:05:10 11° N 01:07:14 10° NNE visible
11 Mar 6.2 02:55:14 10° NNW 02:59:34 16° NNE 03:04:07 10° ENE visible
11 Mar 5.0 04:45:20 10° NNW 04:52:27 47° NE 05:00:09 10° ESE visible
11 Mar 4.5 20:28:52 10° SSW 20:31:43 29° S 20:31:43 29° S visible
11 Mar6.322:33:04NNE22:33:04NNE22:19:21WSWvisible
12 Mar 6.3 00:20:25 12° N 00:20:25 12° N 00:22:04 10° NNE visible
12 Mar 6.3 02:10:25 10° NNW 02:13:41 13° NNE 02:17:03 10° NE visible
12 Mar 5.4 04:00:31 10° NNW 04:07:06 33° NE 04:14:10 10° ESE visible
12 Mar 4.1 05:51:06 10° NW 05:58:38 70° WSW 06:06:44 10° SSE visible
12 Mar 4.0 19:44:46 10° S 19:49:57 31° ESE 19:51:21 29° E visible
12 Mar 4.5 21:34:41 10° WSW 21:48:14 - NNE 21:39:04 41° W visible
12 Mar 6.2 23:35:31 13° N 23:35:31 13° N 23:37:12 10° NNE visible
13 Mar 6.4 01:25:24 10° NNW 01:27:42 12° N 01:30:03 10° NNE visible
13 Mar 5.8 03:15:45 10° NNW 03:21:36 25° NE 03:27:49 10° E visible
13 Mar 4.1 05:06:04 10° NNW 05:13:38 82° NE 05:21:48 10° SE visible
13 Mar 4.7 19:01:28 10° SSE 19:05:24 18° ESE 19:09:31 10° ENE visible
13 Mar 3.6 20:49:23 10° SW 20:55:23 74° NW 21:02:01 10° NNE visible
13 Mar 5.7 22:43:04 10° WNW 22:47:35 20° NNW 22:52:24 10° NNE visible
14 Mar 6.4 00:39:50 10° NNW 00:41:40 11° N 00:43:33 10° NNE visible
14 Mar 6.1 02:31:01 10° NNW 02:35:55 19° NNE 02:41:07 10° ENE visible
14 Mar 4.6 04:21:08 10° NNW 04:28:29 57° NE 04:36:26 10° SE visible
14 Mar 3.3 20:04:30 10° SSW 20:10:26 71° ESE 20:16:57 10° NE visible
14 Mar 5.3 21:56:49 10° W 22:01:59 27° NW 22:07:36 10° NNE visible
14 Mar 6.3 23:53:22 10° NNW 23:55:39 12° N 23:58:00 10° NNE visible
15 Mar 6.3 01:46:13 10° NNW 01:50:06 15° NNE 01:54:09 10° NE visible
15 Mar 5.1 03:36:18 10° NNW 03:43:13 40° NE 03:50:41 10° ESE visible
15 Mar 4.1 05:27:06 10° NW 05:34:29 56° WSW 05:42:23 10° SSE visible
15 Mar 3.7 19:20:05 10° S 19:25:39 43° ESE 19:31:41 10° NE visible
15 Mar 4.8 21:10:56 10° WSW 21:16:34 38° NW 21:22:47 10° NNE visible
15 Mar 6.2 23:06:34 10° NW 23:09:43 14° NNW 23:13:01 10° NNE visible
16 Mar 6.4 01:01:21 10° N 01:04:10 12° NNE 01:07:05 10° NE visible
16 Mar 5.6 02:51:31 10° NNW 02:57:48 29° NE 03:04:32 10° E visible
16 Mar 3.9 04:41:58 10° NW 04:49:32 82° WSW 04:57:43 10° SSE visible
16 Mar 4.1 20:25:24 10° SW 20:31:21 57° NW 20:37:54 10° NNE visible
16 Mar 6.0 22:19:51 10° WNW 22:23:53 17° NNW 22:28:10 10° NNE visible
